Tracking 17141 objects as of 6-July-2015
HD Live streaming from Space Station

INTELSAT 605

Track INTELSAT 605 now!
INTELSAT 605 is classified as:


NORAD ID: 21653
Int'l Code: 1991-055A
Perigee: 36,046.1 km
Apogee: 36,078.1 km
Inclination: 9.1 °
Period: 1,449.8 minutes
Semi major axis: 42433 km
RCS: 0.754 m2 (medium)
Launch date: August 14, 1991
Source: International Telecommunications Satellite Organization (ITSO)

Inclined orbit; 64 C-band, 24 Ku-band; Broadcasting, business services, direct-to-home TV broadcasting, telecommunications, VSAT networks; Atlantic Ocean region.
Your satellite tracking list
Your tracking list is empty





NASA's NSSDC Master Catalog

Two Line Element Set (TLE):
1 21653U 91055A   15185.75286400  .00000085  00000-0  00000+0 0  9991
2 21653 009.0901 047.6435 0003760 122.9614 080.9548 00.99322086 87231

Source of the keplerian elements: AFSPC

N2YO: 224